Time,TemperatureF,DewpointF,PressureIn,WindDirection,WindDirectionDegrees,WindSpeedMPH,WindSpeedGustMPH,Humidity,HourlyPrecipIn,Conditions,Clouds,dailyrainin,SoftwareType,DateUTC
2013-01-01 00:00:00,-4.0,-7.0,-100.00,North,357,8.0,11.0,86,-99.99,,,-99.99,,2013-01-01 07:00:00,
2013-01-01 00:42:00,-4.0,-7.0,-100.00,North,357,8.0,11.0,86,-99.99,,,-99.99,,2013-01-01 07:42:00,
2013-01-01 00:52:00,-4.0,-7.0,-100.00,North,357,8.0,11.0,86,-99.99,,,-99.99,,2013-01-01 07:52:00,
2013-01-01 01:00:00,-4.0,-7.0,-100.00,NNW,334,6.0,8.0,86,-99.99,,,-99.99,,2013-01-01 08:00:00,
2013-01-01 01:42:00,-4.0,-7.0,-100.00,NNW,334,6.0,8.0,86,-99.99,,,-99.99,,2013-01-01 08:42:00,
2013-01-01 01:53:00,-4.0,-7.0,-100.00,NNW,334,6.0,8.0,86,-99.99,,,-99.99,,2013-01-01 08:53:00,
2013-01-01 02:00:00,-4.0,-8.0,-100.00,NW,311,4.0,6.0,85,-99.99,,,-99.99,,2013-01-01 09:00:00,
2013-01-01 02:42:00,-4.0,-8.0,-100.00,NW,311,4.0,6.0,85,-99.99,,,-99.99,,2013-01-01 09:42:00,
2013-01-01 02:52:00,-4.0,-8.0,-100.00,NW,311,4.0,6.0,85,-99.99,,,-99.99,,2013-01-01 09:52:00,
2013-01-01 03:00:00,-5.0,-8.0,-100.00,WNW,299,4.0,6.0,85,-99.99,,,-99.99,,2013-01-01 10:00:00,
2013-01-01 03:43:00,-5.0,-8.0,-100.00,WNW,299,4.0,6.0,85,-99.99,,,-99.99,,2013-01-01 10:43:00,
2013-01-01 03:52:00,-5.0,-8.0,-100.00,WNW,299,4.0,6.0,85,-99.99,,,-99.99,,2013-01-01 10:52:00,
2013-01-01 04:00:00,-5.0,-9.0,-100.00,WNW,291,5.0,7.0,85,-99.99,,,-99.99,,2013-01-01 11:00:00,
2013-01-01 04:43:00,-5.0,-9.0,-100.00,WNW,291,5.0,7.0,85,-99.99,,,-99.99,,2013-01-01 11:43:00,
2013-01-01 04:53:00,-5.0,-9.0,-100.00,WNW,291,5.0,7.0,85,-99.99,,,-99.99,,2013-01-01 11:53:00,
2013-01-01 05:00:00,-6.0,-9.0,-100.00,WNW,284,6.0,9.0,85,-99.99,,,-99.99,,2013-01-01 12:00:00,
2013-01-01 05:43:00,-6.0,-9.0,-100.00,WNW,284,6.0,9.0,85,-99.99,,,-99.99,,2013-01-01 12:43:00,
2013-01-01 05:52:00,-6.0,-9.0,-100.00,WNW,284,6.0,9.0,85,-99.99,,,-99.99,,2013-01-01 12:52:00,
2013-01-01 06:00:00,-6.0,-9.0,-100.00,NW,315,8.0,11.0,85,-99.99,,,-99.99,,2013-01-01 13:00:00,
2013-01-01 06:43:00,-6.0,-9.0,-100.00,NW,315,8.0,11.0,85,-99.99,,,-99.99,,2013-01-01 13:43:00,
2013-01-01 06:52:00,-6.0,-9.0,-100.00,NW,315,8.0,11.0,85,-99.99,,,-99.99,,2013-01-01 13:52:00,
2013-01-01 07:00:00,-7.0,-10.0,-100.00,NNW,328,9.0,13.0,84,-99.99,,,-99.99,,2013-01-01 14:00:00,
2013-01-01 07:43:00,-7.0,-10.0,-100.00,NNW,328,9.0,13.0,84,-99.99,,,-99.99,,2013-01-01 14:43:00,
2013-01-01 07:53:00,-7.0,-10.0,-100.00,NNW,328,9.0,13.0,84,-99.99,,,-99.99,,2013-01-01 14:53:00,
2013-01-01 08:00:00,-8.0,-11.0,-100.00,NNW,331,11.0,16.0,84,-99.99,,,-99.99,,2013-01-01 15:00:00,
2013-01-01 08:43:00,-8.0,-11.0,-100.00,NNW,331,11.0,16.0,84,-99.99,,,-99.99,,2013-01-01 15:43:00,
2013-01-01 08:53:00,-8.0,-11.0,-100.00,NNW,331,11.0,16.0,84,-99.99,,,-99.99,,2013-01-01 15:53:00,
2013-01-01 09:00:00,-6.0,-10.0,-100.00,NW,316,9.0,13.0,84,-99.99,,,-99.99,,2013-01-01 16:00:00,
2013-01-01 09:43:00,-6.0,-10.0,-100.00,NW,316,9.0,13.0,84,-99.99,,,-99.99,,2013-01-01 16:43:00,
2013-01-01 09:53:00,-6.0,-10.0,-100.00,NW,316,9.0,13.0,84,-99.99,,,-99.99,,2013-01-01 16:53:00,
2013-01-01 10:00:00,-4.0,-8.0,-100.00,NNW,328,9.0,14.0,83,-99.99,,,-99.99,,2013-01-01 17:00:00,
2013-01-01 10:43:00,-4.0,-8.0,-100.00,NNW,328,9.0,14.0,83,-99.99,,,-99.99,,2013-01-01 17:43:00,
2013-01-01 10:53:00,-4.0,-8.0,-100.00,NNW,328,9.0,14.0,83,-99.99,,,-99.99,,2013-01-01 17:53:00,
2013-01-01 11:00:00,-3.0,-7.0,-100.00,NNW,342,8.0,14.0,83,-99.99,,,-99.99,,2013-01-01 18:00:00,
2013-01-01 11:43:00,-3.0,-7.0,-100.00,NNW,342,8.0,14.0,83,-99.99,,,-99.99,,2013-01-01 18:43:00,
2013-01-01 11:53:00,-3.0,-7.0,-100.00,NNW,342,8.0,14.0,83,-99.99,,,-99.99,,2013-01-01 18:53:00,
2013-01-01 12:00:00,-1.0,-5.0,-100.00,NNW,342,7.0,13.0,84,-99.99,,,-99.99,,2013-01-01 19:00:00,
2013-01-01 12:43:00,-1.0,-5.0,-100.00,NNW,342,7.0,13.0,84,-99.99,,,-99.99,,2013-01-01 19:43:00,
2013-01-01 12:52:00,-1.0,-5.0,-100.00,NNW,342,7.0,13.0,84,-99.99,,,-99.99,,2013-01-01 19:52:00,
2013-01-01 13:00:00,-2.0,-6.0,-100.00,NW,312,7.0,13.0,84,-99.99,,,-99.99,,2013-01-01 20:00:00,
2013-01-01 13:42:00,-2.0,-6.0,-100.00,NW,312,7.0,13.0,84,-99.99,,,-99.99,,2013-01-01 20:42:00,
2013-01-01 13:53:00,-2.0,-6.0,-100.00,NW,312,7.0,13.0,84,-99.99,,,-99.99,,2013-01-01 20:53:00,
2013-01-01 14:00:00,-4.0,-8.0,-100.00,NW,308,10.0,18.0,84,-99.99,,,-99.99,,2013-01-01 21:00:00,
2013-01-01 14:42:00,-4.0,-8.0,-100.00,NW,308,10.0,18.0,84,-99.99,,,-99.99,,2013-01-01 21:42:00,
2013-01-01 14:53:00,-4.0,-8.0,-100.00,NW,308,10.0,18.0,84,-99.99,,,-99.99,,2013-01-01 21:53:00,
2013-01-01 15:00:00,-4.0,-7.0,-100.00,NW,313,9.0,18.0,85,-99.99,,,-99.99,,2013-01-01 22:00:00,
2013-01-01 15:43:00,-4.0,-7.0,-100.00,NW,313,9.0,18.0,85,-99.99,,,-99.99,,2013-01-01 22:43:00,
2013-01-01 15:52:00,-4.0,-7.0,-100.00,NW,313,9.0,18.0,85,-99.99,,,-99.99,,2013-01-01 22:52:00,
2013-01-01 16:00:00,-4.0,-7.0,-100.00,NW,320,8.0,18.0,85,-99.99,,,-99.99,,2013-01-01 23:00:00,
2013-01-01 16:42:00,-4.0,-7.0,-100.00,NW,320,8.0,18.0,85,-99.99,,,-99.99,,2013-01-01 23:42:00,
2013-01-01 16:52:00,-4.0,-7.0,-100.00,NW,320,8.0,18.0,85,-99.99,,,-99.99,,2013-01-01 23:52:00,
2013-01-01 17:00:00,-6.0,-10.0,-100.00,NNW,342,12.0,21.0,84,-99.99,,,-99.99,,2013-01-02 00:00:00,
2013-01-01 17:43:00,-6.0,-10.0,-100.00,NNW,342,12.0,21.0,84,-99.99,,,-99.99,,2013-01-02 00:43:00,
2013-01-01 17:52:00,-6.0,-10.0,-100.00,NNW,342,12.0,21.0,84,-99.99,,,-99.99,,2013-01-02 00:52:00,
2013-01-01 18:00:00,-9.0,-12.0,-100.00,NNW,341,14.0,23.0,83,-99.99,,,-99.99,,2013-01-02 01:00:00,
2013-01-01 18:42:00,-9.0,-12.0,-100.00,NNW,341,14.0,23.0,83,-99.99,,,-99.99,,2013-01-02 01:42:00,
2013-01-01 18:52:00,-9.0,-12.0,-100.00,NNW,341,14.0,23.0,83,-99.99,,,-99.99,,2013-01-02 01:52:00,
2013-01-01 19:00:00,-8.0,-12.0,-100.00,NNW,345,18.0,28.0,83,-99.99,,,-99.99,,2013-01-02 02:00:00,
2013-01-01 19:42:00,-8.0,-12.0,-100.00,NNW,345,18.0,28.0,83,-99.99,,,-99.99,,2013-01-02 02:42:00,
2013-01-01 19:53:00,-8.0,-12.0,-100.00,NNW,345,18.0,28.0,83,-99.99,,,-99.99,,2013-01-02 02:53:00,
2013-01-01 20:00:00,-5.0,-11.0,-100.00,NNW,343,26.0,38.0,75,-99.99,,,-99.99,,2013-01-02 03:00:00,
2013-01-01 20:42:00,-5.0,-11.0,-100.00,NNW,343,26.0,38.0,75,-99.99,,,-99.99,,2013-01-02 03:42:00,
2013-01-01 20:53:00,-5.0,-11.0,-100.00,NNW,343,26.0,38.0,75,-99.99,,,-99.99,,2013-01-02 03:53:00,
2013-01-01 21:00:00,-2.0,-24.0,-100.00,NNW,346,24.0,35.0,32,-99.99,,,-99.99,,2013-01-02 04:00:00,
2013-01-01 21:42:00,-2.0,-24.0,-100.00,NNW,346,24.0,35.0,32,-99.99,,,-99.99,,2013-01-02 04:42:00,
2013-01-01 21:52:00,-2.0,-24.0,-100.00,NNW,346,24.0,35.0,32,-99.99,,,-99.99,,2013-01-02 04:52:00,
2013-01-01 22:00:00,-1.0,-26.0,-100.00,North,2,20.0,30.0,28,-99.99,,,-99.99,,2013-01-02 05:00:00,
2013-01-01 22:43:00,-1.0,-26.0,-100.00,North,2,20.0,30.0,28,-99.99,,,-99.99,,2013-01-02 05:43:00,
2013-01-01 22:53:00,-1.0,-26.0,-100.00,North,2,20.0,30.0,28,-99.99,,,-99.99,,2013-01-02 05:53:00,
2013-01-01 23:00:00,-1.0,-27.0,-100.00,NNW,342,21.0,34.0,26,-99.99,,,-99.99,,2013-01-02 06:00:00,
2013-01-01 23:42:00,-1.0,-27.0,-100.00,NNW,342,21.0,34.0,26,-99.99,,,-99.99,,2013-01-02 06:42:00,
2013-01-01 23:52:00,-1.0,-27.0,-100.00,NNW,342,21.0,34.0,26,-99.99,,,-99.99,,2013-01-02 06:52:00,